Probability
4 2 3 7 6 2 0 0 0 0 0 0 0 0 0 0 0 0 0 0 0 0 1 5 8 8 6 5 5 5 4 3 3 1 1 1 2 2 2 1 1 2 3 3 3 3 3 2 1
5 4 5 7 4 1 0 0 0 0 0 0 0 0 0 0 0 0 0 0 0 0 2 4 7 7 6 4 4 4 3 3 3 2 2 2 2 2 2 1 1 1 2 3 3 3 3 2 1
8 9 10 6 1 0 0 0 0 0 0 0 0 0 0 0 0 0 0 0 0 1 2 5 6 6 5 4 3 3 3 3 3 3 3 3 2 2 2 2 0 0 1 1 2 3 3 2 1
13 16 13 4 0 0 0 0 0 0 0 0 0 0 0 0 0 0 0 0 0 1 2 4 5 5 4 4 4 3 3 3 3 3 4 3 2 2 3 2 1 0 0 0 1 1 2 1 0
17 17 11 3 0 0 0 0 0 0 0 0 0 0 0 0 0 0 0 0 0 1 2 3 4 4 3 4 3 3 3 3 3 3 3 2 2 1 2 2 2 1 1 0 0 0 0 0 0
17 13 5 0 0 0 0 0 0 0 0 0 0 0 0 0 0 0 0 0 0 1 2 2 2 2 3 3 4 3 3 3 3 3 3 2 1 1 1 1 1 2 2 1 0 0 0 0 0
13 8 2 0 0 0 0 0 0 0 0 0 0 0 0 0 0 0 1 1 1 1 2 2 1 1 1 3 4 4 3 3 3 3 3 1 1 0 0 1 1 1 2 1 0 0 0 0 0
8 5 1 0 0 0 0 0 0 0 0 0 0 0 0 0 0 1 3 3 2 1 1 1 0 0 0 1 2 3 2 2 3 3 3 2 1 0 0 1 0 1 1 1 0 0 0 0 0
5 3 0 0 0 0 0 0 0 0 0 0 0 0 0 0 0 1 2 3 2 1 0 0 0 0 0 0 1 1 1 1 1 2 3 3 2 1 1 1 1 0 0 0 0 0 0 0 0
3 1 0 0 0 0 0 0 0 0 0 0 0 0 0 0 0 0 1 2 2 1 0 0 0 1 1 0 1 2 2 1 0 1 3 4 4 4 3 2 2 1 0 0 0 0 0 0 0
1 0 0 0 0 0 0 0 0 0 0 0 1 1 1 0 0 0 0 1 1 1 0 0 0 1 1 0 1 3 4 2 2 2 4 5 6 6 6 5 4 3 1 0 0 0 0 0 0
0 0 0 0 0 0 0 0 0 0 0 0 1 2 2 1 0 0 0 0 0 0 0 0 0 1 0 0 0 2 3 3 4 6 7 8 9 8 8 8 7 5 3 1 0 0 0 0 0
0 0 0 0 0 0 0 0 0 0 0 0 1 2 2 2 1 1 0 0 0 0 0 1 1 2 1 1 0 0 1 3 5 7 8 10 10 10 11 11 10 8 4 1 0 0 0 0 0
0 0 0 0 0 0 0 0 0 0 0 1 2 3 3 3 2 1 0 0 0 0 1 2 2 3 3 2 1 0 1 3 5 6 7 9 11 12 12 12 12 9 5 2 1 1 1 0 0
0 0 0 0 0 0 0 0 0 0 1 2 3 3 3 3 1 0 0 0 0 1 2 2 2 2 3 2 1 0 1 2 4 5 6 8 11 13 13 13 11 9 7 5 3 1 1 0 0
0 0 0 0 0 0 0 0 0 0 1 2 3 3 3 2 1 1 1 0 0 1 2 2 1 2 3 3 1 0 2 4 4 5 6 8 9 12 13 12 10 9 8 6 4 2 1 0 0
0 0 0 0 0 0 0 0 1 0 1 2 3 3 3 1 1 1 1 0 0 1 2 2 2 3 3 3 3 2 3 6 6 6 7 8 8 9 11 12 10 8 7 6 4 3 1 0 0
0 0 0 0 0 0 0 0 0 0 1 3 3 3 2 1 0 1 1 0 1 3 4 4 5 5 5 5 4 4 4 6 7 8 8 8 8 8 9 11 10 8 6 6 4 3 2 1 0
0 0 0 0 0 0 0 0 0 1 2 3 3 3 2 0 0 0 0 0 2 4 6 6 6 6 6 5 4 4 4 5 7 9 10 9 8 8 8 8 8 7 7 6 4 3 3 1 0
0 0 0 0 0 0 0 0 0 1 2 3 3 3 2 1 0 1 1 1 2 3 5 5 5 5 6 5 4 3 3 4 6 9 9 8 8 8 7 7 6 7 7 6 5 4 3 2 1
0 0 0 0 0 0 0 0 1 1 1 1 3 3 3 2 2 3 3 2 2 3 4 4 4 5 6 6 4 3 3 3 4 6 6 6 7 7 7 6 6 6 6 6 6 5 4 2 1
0 0 0 0 0 0 0 0 1 1 0 1 2 3 3 3 4 5 5 5 4 4 5 7 8 8 9 8 6 4 3 3 3 3 4 5 6 6 5 5 7 7 7 7 7 6 5 4 3
0 0 0 0 0 0 0 0 1 1 1 1 2 3 4 5 5 6 7 8 7 7 7 10 12 12 13 11 8 5 4 3 3 2 2 3 5 6 5 6 8 10 9 9 9 10 9 7 5
0 0 0 0 0 0 0 0 1 1 1 1 2 3 6 7 7 7 8 7 8 8 9 12 14 14 15 12 8 6 4 3 1 1 1 2 5 7 7 8 10 11 10 11 13 15 14 11 9
0 0 0 0 0 0 0 0 1 1 0 1 2 6 9 10 10 10 10 9 7 7 9 13 16 17 17 14 10 7 6 4 2 0 1 2 4 8 10 12 13 13 12 14 17 17 15 15 15
0 0 0 0 0 0 0 0 1 1 1 2 4 9 13 14 12 12 12 12 11 9 9 13 18 20 20 19 16 13 11 8 5 3 3 3 5 7 10 13 16 17 17 18 20 18 17 19 20
0 0 0 0 0 0 0 0 1 2 2 3 5 10 15 16 14 11 9 9 12 12 11 14 19 22 23 23 21 19 18 15 12 10 8 7 8 8 9 13 17 19 21 22 22 21 21 24 24
0 0 0 0 0 0 0 1 2 3 3 3 6 10 14 16 13 8 4 4 8 12 14 17 20 22 24 24 21 20 21 22 20 18 16 15 15 13 12 14 17 19 22 25 25 23 22 25 27
0 0 0 0 0 0 0 1 2 3 3 4 7 10 11 12 9 6 3 3 6 10 15 20 22 23 23 23 22 21 22 24 24 22 22 23 24 23 20 18 20 21 24 27 27 23 21 24 27
0 0 0 0 0 0 0 0 1 3 4 6 9 10 10 9 7 5 3 4 6 11 17 21 24 23 21 22 25 25 24 22 22 24 25 27 30 29 24 21 22 23 24 28 28 24 22 24 26
Wind_Speed
12 9 6 5 6 2 10 10 8 8 7 8 7 6 7 8 7 7 6 6 6 7 9 11 10 10 11 13 13 13 14 14 14 15 15 15 15 15 15 15 15 15 15 14 13 13 12 12 12
9 6 5 6 2 8 11 9 10 10 8 5 5 6 6 8 7 6 5 6 6 7 8 9 11 10 11 12 12 13 14 14 14 14 14 15 15 15 15 14 14 14 14 14 13 12 12 11 11
7 6 6 3 7 10 11 9 9 8 6 4 5 6 6 6 5 4 6 7 7 7 7 10 11 11 11 12 12 12 13 14 14 14 14 14 15 15 14 14 13 13 13 13 12 12 11 11 11
5 6 6 2 11 11 9 7 6 5 6 5 4 7 7 6 4 5 7 7 8 8 8 11 11 11 11 12 11 12 12 13 14 14 14 14 14 14 14 14 12 13 13 13 12 11 11 10 10
6 5 2 8 12 10 8 7 5 5 5 5 4 7 8 6 5 7 7 7 8 7 8 11 11 11 11 11 11 11 12 12 13 13 13 13 13 14 14 14 12 12 12 12 11 10 10 9 9
5 4 4 9 10 8 7 5 5 5 6 5 5 6 7 6 6 7 8 7 7 7 8 10 12 11 11 11 11 11 12 12 12 12 12 12 13 13 13 13 13 12 12 11 10 10 9 8 8
5 3 6 8 8 8 6 5 5 5 6 5 3 5 7 7 7 7 8 7 7 6 7 8 9 11 12 12 11 11 11 12 12 12 12 12 12 12 13 13 13 12 11 10 10 9 9 8 7
5 3 6 7 7 8 6 5 5 5 6 5 2 4 6 8 7 8 8 8 7 7 7 7 7 8 9 10 12 11 11 11 11 11 11 12 12 12 12 13 12 12 11 10 9 8 7 6 6
6 2 8 8 6 6 4 4 5 4 6 5 4 6 9 11 9 8 8 7 7 7 6 6 6 7 7 8 10 10 11 11 10 10 11 11 8 9 10 11 11 11 11 10 8 8 7 6 7
4 3 8 6 5 4 3 3 3 3 5 5 7 9 12 11 9 9 8 7 7 7 7 5 5 6 6 6 6 5 6 7 7 6 8 6 5 5 7 10 11 11 11 10 9 7 8 7 5
2 4 5 4 4 3 3 3 2 2 3 4 6 10 12 11 9 8 7 6 7 7 6 5 5 4 4 4 4 3 3 4 5 7 7 5 5 5 5 5 7 8 10 7 8 7 4 3 2
2 2 2 3 3 2 2 3 3 4 6 6 6 10 12 11 9 8 7 6 6 6 6 5 5 4 4 3 3 4 3 3 4 5 6 5 4 4 4 3 4 4 4 4 3 3 3 2 1
2 1 1 1 2 2 2 3 3 4 5 6 8 10 11 10 9 8 7 6 6 6 5 5 5 4 4 3 3 4 4 3 4 4 4 4 4 4 4 3 3 3 3 4 3 3 3 2 2
1 1 1 1 2 2 2 3 2 4 5 8 9 9 9 9 8 8 7 6 6 5 5 5 5 4 4 4 4 3 4 3 3 4 4 4 3 3 3 4 4 3 3 3 3 3 2 2 1
3 3 3 2 1 1 3 3 3 5 6 8 8 8 8 8 7 7 7 6 6 6 5 4 5 4 4 4 5 4 4 4 3 4 5 4 4 4 3 3 3 3 3 3 3 3 2 2 2
6 6 3 2 0 1 5 2 5 6 7 7 7 8 8 7 7 6 6 6 6 6 5 4 4 4 4 3 3 3 3 3 3 3 4 5 4 4 3 3 3 3 3 3 3 3 2 2 2
7 4 1 2 1 1 3 1 6 6 6 6 7 7 8 8 7 6 6 6 6 6 5 5 4 4 4 4 3 3 3 3 3 3 3 4 5 5 4 3 2 4 3 3 3 2 2 2 1
3 3 2 1 1 2 3 1 4 5 5 6 6 6 7 7 8 8 7 7 7 6 6 5 5 5 4 4 3 3 3 3 3 3 3 4 4 5 4 3 4 4 3 3 3 2 2 2 2
5 6 4 1 0 3 3 2 3 6 5 5 6 6 7 6 7 7 8 8 7 7 6 6 5 5 5 4 4 4 4 4 3 3 4 5 4 5 4 3 4 4 3 3 4 3 4 3 2
8 8 5 2 1 4 4 4 3 5 6 5 5 6 7 7 7 8 9 8 8 8 7 7 6 6 6 4 3 3 2 3 3 3 4 4 5 5 5 5 4 4 3 4 4 4 3 3 3
9 8 6 4 4 6 6 6 5 5 5 5 5 5 6 7 8 9 9 9 9 8 8 6 7 7 6 5 4 3 3 3 3 3 3 5 5 5 4 5 4 4 5 4 5 5 5 3 3
9 5 6 6 8 5 6 7 4 5 6 6 6 5 6 7 8 8 9 10 9 9 8 7 7 7 7 6 5 5 4 3 3 2 2 3 5 5 5 6 5 5 4 4 6 5 4 5 4
5 4 7 8 9 9 7 8 2 4 4 5 6 6 6 7 8 8 9 9 8 8 8 7 7 7 7 6 5 5 4 3 2 2 2 2 3 5 5 5 5 5 5 5 5 4 5 4 5
4 6 6 9 10 10 6 8 3 1 2 2 3 5 6 6 7 8 8 8 8 7 7 7 7 6 6 6 6 5 4 4 3 3 3 3 3 3 5 6 5 6 5 5 6 5 7 5 5
9 9 7 8 8 6 3 7 2 1 1 2 2 4 4 5 6 7 8 9 8 8 7 7 7 6 6 7 6 6 5 5 5 5 4 4 3 3 4 4 5 5 5 6 6 6 6 7 7
9 11 8 8 7 4 6 5 0 2 1 0 1 3 4 4 5 6 7 8 8 8 8 7 7 7 7 6 6 5 6 5 4 5 4 4 4 3 3 4 5 6 6 6 6 6 7 6 7
8 9 9 10 9 8 4 3 3 3 3 2 3 3 4 4 4 5 5 7 7 8 7 7 7 6 6 6 5 5 5 5 4 4 5 4 3 3 4 5 5 5 6 6 6 6 6 6 7
8 7 7 9 8 9 7 7 3 3 3 3 3 3 3 4 4 4 4 5 6 7 7 7 7 6 6 6 5 4 5 5 4 4 4 3 3 3 4 4 5 5 5 6 6 6 6 6 6
7 8 8 8 8 9 7 2 3 2 1 3 3 3 3 3 4 4 4 4 5 6 6 6 6 6 5 5 5 4 4 4 4 4 4 3 3 3 3 4 4 5 5 5 5 6 6 7 6
8 8 9 9 8 9 10 1 5 3 2 2 3 3 3 2 2 3 4 4 4 5 5 5 5 5 5 5 5 4 4 4 4 4 4 4 4 4 4 4 4 4 5 5 6 6 6 6 6
Wind_Direction
178 185 207 233 234 104 60 56 49 53 60 55 48 44 47 34 19 55 77 91 103 119 126 132 130 131 134 137 137 137 136 135 137 138 139 136 134 132 132 131 131 132 131 128 127 125 124 122 120
175 183 224 242 302 66 64 53 55 56 67 74 67 60 62 60 50 79 102 103 118 122 128 129 129 133 134 136 137 137 138 138 139 141 142 141 137 135 134 133 133 132 132 130 128 128 126 124 123
180 219 257 258 49 49 56 55 67 75 72 62 73 59 50 55 64 84 104 123 123 122 126 124 134 136 135 136 137 138 138 139 140 141 142 142 140 139 136 135 134 134 133 132 131 131 129 126 126
205 223 234 57 64 55 51 60 71 80 80 63 72 82 74 48 47 95 122 134 125 127 131 125 136 136 135 137 139 138 139 139 140 140 140 142 141 141 137 135 138 138 137 137 137 136 133 129 129
235 254 165 76 66 61 59 60 59 55 62 68 69 80 80 64 79 108 126 130 125 126 127 129 136 137 137 138 141 141 139 138 139 139 138 140 141 142 139 138 139 140 141 140 140 139 135 134 135
243 246 53 63 68 65 67 65 56 56 72 80 83 85 79 92 101 108 119 126 124 130 132 132 141 142 140 141 143 142 141 140 141 141 141 142 145 145 144 142 142 145 143 142 142 140 138 139 140
291 346 55 60 68 72 59 51 36 52 69 67 80 84 98 103 102 107 112 111 111 125 132 135 144 147 148 147 145 142 141 141 142 146 145 148 148 148 147 146 147 148 147 146 146 144 146 145 147
293 286 68 64 57 66 70 67 50 41 70 78 75 87 106 119 119 115 111 104 100 111 121 128 138 142 149 148 147 145 144 145 147 150 151 153 154 153 154 154 151 151 150 150 149 147 147 149 154
259 287 55 47 44 62 74 74 78 69 96 97 72 67 102 126 130 123 115 110 106 108 112 117 130 140 143 141 142 150 151 152 157 156 156 163 161 154 160 148 152 155 154 153 151 150 152 165 168
262 28 49 35 32 48 70 65 94 123 111 109 106 103 118 132 139 134 126 122 120 117 116 117 126 135 135 132 136 150 151 151 158 152 157 158 151 153 150 148 159 160 160 160 157 159 171 197 176
279 15 36 45 42 43 83 88 94 95 86 85 119 131 138 142 145 139 131 126 121 121 118 124 126 124 124 130 137 136 135 144 151 153 157 153 155 156 153 155 161 162 169 167 161 178 181 181 152
270 24 9 34 47 48 71 87 71 47 50 76 122 139 145 152 151 146 137 130 123 122 124 128 128 129 129 130 135 146 147 151 148 147 163 157 158 161 148 154 157 163 161 156 174 170 158 164 175
235 359 22 46 74 76 89 80 65 64 76 103 127 142 149 154 151 147 141 137 129 128 131 127 129 135 140 146 163 148 151 158 150 148 153 161 162 159 153 153 157 164 156 165 172 166 154 176 183
342 303 248 155 114 123 114 96 85 79 111 124 134 144 151 152 150 148 149 144 139 138 138 136 141 144 155 163 165 157 158 158 160 156 157 174 165 158 165 163 160 167 172 165 172 168 177 204 202
238 235 187 155 177 163 202 114 78 110 131 135 139 143 150 155 157 158 156 153 149 147 146 151 157 157 164 168 168 165 170 161 165 159 163 177 175 164 170 167 172 172 179 181 187 181 195 205 215
224 228 209 135 159 193 250 87 106 135 146 142 145 149 154 159 165 162 161 160 153 152 153 164 167 154 156 162 173 167 174 168 172 170 168 179 178 177 184 181 175 170 187 187 184 197 197 211 236
219 231 226 138 151 204 251 75 123 152 159 154 158 160 163 167 173 169 169 167 161 160 161 167 174 167 164 163 171 174 175 185 182 176 179 178 186 187 195 191 172 187 192 196 203 179 201 207 227
241 255 251 251 128 235 242 198 144 167 174 165 163 165 169 177 180 176 176 171 167 165 167 172 177 175 179 178 181 183 184 187 190 187 182 189 190 191 204 191 183 199 196 199 199 194 208 216 220
274 271 273 286 212 260 258 254 189 175 188 180 177 178 180 183 173 175 178 176 171 170 175 178 183 181 192 189 193 186 185 187 183 186 183 191 195 190 200 208 187 204 201 205 203 200 203 207 213
249 258 259 222 193 266 263 255 216 182 194 197 194 189 190 181 176 180 182 182 181 179 183 185 189 189 199 195 207 206 198 198 187 192 182 196 195 194 193 202 207 199 198 202 205 207 219 211 206
244 257 268 268 247 231 255 231 200 182 195 200 208 206 200 189 184 182 182 185 185 186 190 193 197 195 199 196 198 189 184 203 193 195 195 203 203 201 206 203 218 213 216 203 209 212 217 225 223
245 252 266 254 250 242 252 268 189 187 200 206 210 211 207 194 188 183 182 186 189 189 188 193 197 195 193 195 202 197 199 203 200 206 197 196 202 208 207 210 212 216 223 211 218 206 216 221 224
266 270 253 250 254 261 240 266 223 184 224 218 211 216 211 196 190 185 185 184 188 189 187 185 187 188 187 194 196 206 217 213 205 208 196 213 200 206 210 213 215 214 222 218 228 216 226 227 232
217 224 226 236 248 249 252 264 262 186 268 259 209 206 209 201 190 181 180 179 183 184 183 180 179 183 184 191 197 201 215 223 229 227 226 220 211 208 214 219 216 218 221 214 221 222 222 231 238
218 233 231 228 229 241 207 254 290 11 321 293 225 198 195 195 189 181 178 178 179 181 182 179 176 181 186 193 202 203 211 219 225 233 228 239 237 221 212 224 219 221 217 219 219 222 229 226 226
225 244 257 268 267 243 193 244 145 79 95 38 151 157 166 174 176 177 178 176 176 179 181 180 178 179 185 193 201 206 213 221 226 230 242 237 246 246 235 229 228 226 224 225 220 226 223 223 226
223 238 265 268 268 271 237 209 181 154 146 142 136 144 156 163 160 158 164 169 171 178 179 180 177 177 182 189 191 195 207 223 229 226 230 239 245 243 237 237 236 234 229 230 227 230 231 226 230
259 249 242 250 256 260 242 233 221 178 177 158 148 142 152 159 153 151 152 163 165 169 171 174 175 180 183 184 194 192 201 211 220 230 235 246 253 258 256 250 247 242 239 236 236 236 231 233 234
203 223 239 250 259 268 266 228 89 157 160 163 157 145 143 153 153 146 148 152 161 161 164 168 174 177 182 188 192 202 203 209 217 224 234 239 248 251 251 252 249 244 239 236 236 242 235 235 237
237 236 232 243 243 256 275 267 105 114 118 130 125 113 107 122 130 133 140 143 148 157 162 164 175 183 189 189 191 197 205 209 217 222 230 235 240 242 241 243 244 248 242 239 237 240 242 236 234